Location: Piotrkow Trybunalski
(51.4000°N, 19.6830°E)
Time: 00:45:25
(UTC+02:00)

STRAND 1 - Pass Details

Date: 04 April 2023
Orbit: 767 x 779 km, 98.4° (Epoch: 06 June)

Event Time Altitude Azimuth Distance (km) Brightness Sun altitude
Rises 05:05:39 0° 125° (SE) 3,245 ? -10.6°
Reaches altitude 10° 05:08:17 10° 113° (ESE) 2,320 ? -10.2°
Maximum altitude 05:12:24 25° 59° (ENE) 1,517 ? -9.6°
Drops below altitude 10° 05:16:32 10° 5° (N) 2,326 ? -9.0°
Sets 05:19:10 0° 353° (N) 3,256 ? -8.6°
